Location: Unspecified
(35.6895°N, 139.6917°E)
Time: 00:56:45
(UTC+00:00)

ASTRO H - Pass Details

Date: 02 October 2021
Orbit: 561 x 579 km, 31.0° (Epoch: 22 October)

Event Time Altitude Azimuth Distance (km) Brightness Sun altitude
Rises 09:19:59 0° 204° (SSW) 2,727 ? -12.2°
Reaches altitude 10° 09:24:14 10° 164° (SSE) 1,834 ? -13.1°
Maximum altitude 09:25:02 10° 153° (SSE) 1,805 ? -13.2°
Enters shadow 09:25:44 10° 143° (SE) 1,828 ? -13.4°
